Regional Weather Roundup
Issued by NWS

Home | Current Version | Previous Version | Graphics & Text | Print | Product List | Glossary On
Versions: 1 2 3 4 5 6 7 8 9 10 11 12 13 14 15 16 17 18 19 20 21 22 23 24 25 26 27 28 29 30 31 32 33 34 35 36 37 38 39 40 41 42 43 44 45 46 47 48 49 50
666
ASUS43 KFSD 221002
RWRSD

WEATHER ROUNDUP FOR SOUTH DAKOTA
NATIONAL WEATHER SERVICE SIOUX FALLS SD
500 AM CDT SUN OCT 22 2017

NOTE: "FAIR" INDICATES FEW OR NO CLOUDS BELOW 12,000 FEET WITH NO
SIGNIFICANT WEATHER AND/OR OBSTRUCTIONS TO VISIBILITY.


SDZ001>005-009-010-012>017-221100-
NORTHWEST AND NORTH CENTRAL SOUTH DAKOTA

CITY           SKY/WX    TMP DP  RH WIND       PRES   REMARKS
BUFFALO          N/A     33  18  53 W9        29.83F WCI  25
MOBRIDGE       CLEAR     33  27  78 N5        29.90S WCI  29
$$

SDZ012>016-024>037-041>051-057-063-072>074-221100-
SOUTHWEST AND SOUTH CENTRAL SOUTH DAKOTA

CITY           SKY/WX    TMP DP  RH WIND       PRES   REMARKS
RAPID CTY ARPT CLEAR     32  17  54 NW10      29.97S WCI  24
PIERRE         CLEAR     39  28  64 W13       29.97R
CUSTER         CLEAR     32  12  43 W6        29.98S WCI  26
ELLSWORTH AFB  CLEAR     32  16  52 W10       29.95F WCI  23
PHILIP         CLEAR     30  24  78 CALM      29.98F
PINE RIDGE     CLEAR     24  19  81 CALM      30.03S
SPEARFISH      FAIR      32  16  51 SE6       29.94F WCI  26
WINNER         FAIR      40  27  59 SW6       30.01F
$$

SDZ004>011-016>023-039-040-221100-
NORTHEAST SOUTH DAKOTA

CITY           SKY/WX    TMP DP  RH WIND       PRES   REMARKS
ABERDEEN       CLEAR     31  29  92 S7        29.92R WCI  24
WATERTOWN      CLEAR     36  34  92 W9        29.92R
BROOKINGS      CLEAR     39  34  82 W6        29.95R
SISSETON         N/A     45  36  70 W10       29.88R
$$

SDZ017-020-022-023-036>040-048>070-221100-
SOUTHEAST SOUTH DAKOTA

CITY           SKY/WX    TMP DP  RH WIND       PRES   REMARKS
SIOUX FALLS    CLEAR     41  36  82 W3        29.98R
HURON          CLEAR     38  32  79 SW7       29.97R
CHAMBERLAIN    CLEAR     37  31  79 SW3       30.00S
MITCHELL       CLEAR     41  32  70 W13       29.99R
YANKTON        CLEAR     36  33  89 CALM      30.00S
$$

ABBREVIATIONS USED IN REMARKS
   TC - TEMPERATURE IN CELSIUS
  WCI - WIND CHILL INDEX
   HX - HEAT INDEX
  VSB - VISIBILITY





USA.gov is the U.S. government's official web portal to all federal, state and local government web resources and services.